This is the latest recevied weather packets stored in our database for station/object K1BES. If no packets are shown the sender has not sent any weather packets the latest 10 day(s).
| Time | Temp. | Humidity | Pressure | Rain* | Wind** | Luminosity | Snow |
|---|---|---|---|---|---|---|---|
| 1787832429 | 26.67° C | 86% | 1018.1 hPa | 0 mm | - | 88 W/m² | - |
| 1787832128 | 26.67° C | 87% | 1018.2 hPa | 0 mm | - | 100 W/m² | - |
| 1787831826 | 26.11° C | 87% | 1018.2 hPa | 0 mm | - | 108 W/m² | - |
| 1787831522 | 25.56° C | 87% | 1018.1 hPa | 0 mm | - | 104 W/m² | - |
| 1787831220 | 25.56° C | 88% | 1017.8 hPa | 0 mm | - | 92 W/m² | - |
| 1787830916 | 25.56° C | 88% | 1017.9 hPa | 0 mm | - | 79 W/m² | - |
| 1787830615 | 25° C | 88% | 1017.6 hPa | 0 mm | - | 63 W/m² | - |
| 1787830316 | 25° C | 87% | 1017.6 hPa | 0 mm | - | 48 W/m² | - |
| 1787830015 | 25° C | 87% | 1017.6 hPa | 0 mm | - | 34 W/m² | - |
| 1787829710 | 25° C | 87% | 1017.4 hPa | 0 mm | - | 25 W/m² | - |
| 1787829405 | 25° C | 86% | 1017.7 hPa | 0 mm | - | 18 W/m² | - |
| 1787829101 | 25° C | 86% | 1017.6 hPa | 0 mm | - | 9 W/m² | - |
| 1787828801 | 25° C | 88% | 1017.5 hPa | 0 mm | - | 5 W/m² | - |
| 1787828498 | 25° C | 89% | 1017.9 hPa | 0 mm | - | 2 W/m² | - |
| 1787828197 | 25° C | 89% | 1017.8 hPa | 0 mm | - | 1 W/m² | - |
| 1787827896 | 25.56° C | 90% | 1018.2 hPa | 0 mm | - | 0 W/m² | - |
| 1787827592 | 25.56° C | 92% | 1018.5 hPa | 0 mm | - | 0 W/m² | - |
| 1787827292 | 25° C | 93% | 1018.1 hPa | 0 mm | - | 0 W/m² | - |
| 1787826990 | 25° C | 93% | 1017.8 hPa | 0 mm | - | 0 W/m² | - |
| 1787826690 | 25° C | 93% | 1017.4 hPa | 0 mm | - | 0 W/m² | - |
| 1787826386 | 25° C | 93% | 1017.4 hPa | 0 mm | - | 0 W/m² | - |
| 1787826083 | 25° C | 93% | 1017.5 hPa | 0 mm | - | 0 W/m² | - |
| 1787825781 | 25° C | 92% | 1017.4 hPa | 0 mm | - | 0 W/m² | - |
| 1787825480 | 25° C | 92% | 1017.3 hPa | 0 mm | - | 0 W/m² | - |
| 1787825175 | 25° C | 92% | 1017.3 hPa | 0 mm | - | 0 W/m² | - |
* Rain latest hour (hover to see other rain measurements)
** Current wind speed in m/s (hover to see current wind gust speed)